Showing default

PICO-02A021, 60538

Orbit data source: Space-Track

PICO-02A021, 60538 is a payload satellite owned by Apogeo Space (IT) in SSO that was launched on Fri, 16 Aug 2024 UTC via an FALCON 9 launch vehicle from the Air Force Western Test Range (AFWTR). Payload-class satellites include a variety of spacecraft equipped with specific instruments for various scientific and technological missions. These include communications satellites like Starlink; space stations such as the ISS; scientific satellites like the Hubble; Earth observation satellites from companies like Planet Labs, Umbra, and HawkEye 360; GPS; miniature CubeSats for education and research; and military/defense satellites.

Loading next visibility...
Identifier
60538, 2024-149BY
Orbit
SSO
Country
Flag of ITIT
Related business
Manufacturer
Apogeo Space
Mission
Operational Commercial Communications
Bus & Motor
CUBESAT 0.3U, Unknown motor
Mass
0.5 kg wet, 0.5 kg dry
Launch date (UTC)
2024-08-16 (2 years ago)
Launch vehicle
FALCON 9
Launch site
Air Force Western Test Range (AFWTR)
Object type
Payload
Rocket body
Debris
Shape & HBR
Box, 0.1 m
Radar Cross Section
0.008 m², Small (<0.1 m²)

Expand to show TLE details & history
Last TLE update: 7 hours ago

TLE from 7 hours ago
0 PICO-02A021
1 60538U 24149BY  26112.17559932  .00004598  00000-0  34902-3 0  9992
2 60538  97.6726 191.5122 0004831 199.7103 160.3935 15.02688755 91327
Epoch: 2026-04-22T04:12Z
TLE epoch observation values (Epoch: 2026-04-22T04:12:51.781Z)
Latitude
-0.00011°
Longitude
-81.94434°
Altitude
564.826 km
Speed
7.577 km/s
True Right ascension
12h 46m 02s
True Declination
0° 00' 00"
Sunlit
Object was in full shadow at epoch
Visualization orbit readout
Latitude
Unknown
Longitude
Unknown
Altitude
Unknown
Speed
Unknown
Apparent Right ascension
Unknown
Apparent Declination
Unknown
Sunlit
N/A
Visualization observer readout
Local Sidereal Time
17:55:52
Azimuth
Unknown
Elevation
Unknown
Doppler factor
Unknown
Orbital elements
Apogee altitude
558.96 km
Perigee altitude
552.26 km
Semi-major axis
6,933.747 km
Eccentricity
0.00048
Inclination
97.6726°
RAAN
191.5122°
Arg. of periapsis
199.7103°
True anomaly
160.41207°
Mean anomaly
160.3935°
Eccentric anomaly
160.40278°
Mean motion
3.75916 °/min
Orbital period
95.77 mins
BSTAR
0.00034902
Loading maneuver chart data...
Computing Atmospheric mass density...
Loading historical data...
Loading historical data...
Loading historical data...
Loading historical data...
Loading historical data...
Loading historical data...
Loading historical data...

Documentation

Showing up to 5 results
|